Miscellaneous Local Product
Issued by NWS North Platte, NE

Home | Current Version | Previous Version | Text Only | Print | Product List | Glossary On
Versions: 1 2 3 4 5 6 7 8 9 10 11 12 13 14 15 16 17 18 19 20 21 22 23 24 25 26 27 28 29 30 31 32 33 34 35 36 37 38 39 40 41 42 43 44 45 46 47 48 49 50
630
AXUS43 KLBF 260710
MISLBF


WESTERN AND NORTH CENTRAL NEBRASKA HOURLY WEATHER ROUNDUP
NATIONAL WEATHER SERVICE NORTH PLATTE NE
200 AM CDT SUN MAR 26 2017

NOTE: "FAIR" INDICATES FEW OR NO CLOUDS BELOW 12,000 FEET WITH NO
SIGNIFICANT WEATHER AND/OR OBSTRUCTIONS TO VISIBILITY.

NOTE: STATIONS NOT REPORTING VARIABLES SUCH AS SKY/WEATHER OR
PRESSURE ARE PROVIDED BY RAWS AND APRS NETWORKS AND ARE NOT UNDER
NATIONAL WEATHER SERVICE QUALITY CONTROL.

...OBSERVATIONS IN AND NEAR THE EASTERN PANHANDLE OF NEBRASKA...

CITY           SKY/WX    TMP DP  RH WIND       PRES   REMARKS
PINE RIDGE     PTCLDY    50  28  42 S10       29.81S
CHADRON        CLOUDY    52  31  44 SW9       29.79S
ALLIANCE       CLOUDY    39  30  70 SE9       29.81F WCI  33
SIDNEY         CLOUDY    40  31  70 S6        29.84F
CRESCENT LAKE    N/A     44  29  55 SE5         N/A
$$

...OBSERVATIONS IN NORTHERN NEBRASKA AND FAR SOUTHERN SOUTH DAKOTA...

CITY           SKY/WX    TMP DP  RH WIND       PRES   REMARKS
WINNER         CLOUDY    41  38  89 S8        29.90S
VALENTINE      CLOUDY    40  37  89 S10       29.87F WCI  33
THEDFORD       FOG       40  39  97 S6        29.89S VSB 1
AINSWORTH      CLOUDY    38  38 100 S6        29.89S FOG     WCI  34
O`NEILL        FOG       39  39  99 SE3       29.90F VSB 1
ORD            CLOUDY    39  37  92 E3        29.88F FOG
BROKEN BOW     CLOUDY    40  39  97 SE5       29.89S
VALENTINE NWR    N/A     39  39 100 S10         N/A  WCI  32
HALSEY           N/A     38  38 100 S3          N/A
BUTTE            N/A     37  36  97 SE8         N/A  WCI  31
CHAMBERS         N/A     38  37  98 CALM        N/A
EWING            N/A     38  38 100 CALM        N/A
$$

...OBSERVATIONS IN SOUTHWEST NEBRASKA AND FAR NORTHEAST COLORADO...

CITY           SKY/WX    TMP DP  RH WIND       PRES   REMARKS
HOLYOKE        FAIR      41  37  87 SE7       29.86S
IMPERIAL       MOCLDY    37  36  96 SE8       29.87S FOG     WCI  31
OGALLALA       CLOUDY    43  40  91 E3        29.87R
NORTH PLATTE   CLOUDY    41  38  89 S5        29.89S
MCCOOK         CLOUDY    40  40 100 S8        29.89S FOG     WCI  34
LEXINGTON      CLOUDY    41  39  94 SE5       29.90S FOG
STAPLETON        N/A     38  37  96 CALM        N/A
GOTHENBURG       N/A     42  39  88 SE3         N/A
CALLAWAY         N/A     40  39  95 SE7         N/A
$$

...OBSERVATIONS IN CENTRAL LINCOLN COUNTY AREA...

CITY           SKY/WX    TMP DP  RH WIND       PRES   REMARKS
N.P. AIRPORT   CLOUDY    41  38  89 S5        29.89S
N.P. DOWNTOWN    N/A     40  38  93 CALM        N/A
N.P. SOUTHEAST   N/A     40  38  92 SE3         N/A
N.P. HILLCREST   N/A     40  39  95 S3          N/A
$$

...SOME OBSERVATIONS FROM AROUND THE REGION...

CITY           SKY/WX    TMP DP  RH WIND       PRES   REMARKS
DENVER         CLOUDY    47  32  56 SW9       29.81R
LIMON          CLOUDY    40  31  70 SE3       29.84F
ASPEN          CLOUDY    37  35  92 S7        29.90F WCI  32
LARAMIE        LGT RAIN  37  34  89 W9        29.89S WCI  30
CASPER         LGT RAIN  40  39  97 N8        29.89S WCI  34
CHEYENNE       CLOUDY    43  30  60 W5        29.85S
SCOTTSBLUFF    PTCLDY    45  32  60 E8        29.81S
GRAND ISLAND   FOG       38  38 100 NE3       29.91F VSB 1
OMAHA          CLOUDY    41  37  86 N6        29.90F
SIOUX FALLS    CLOUDY    39  37  92 E7        29.95F WCI  34
PIERRE         CLOUDY    40  36  86 SE13      29.90S WCI  32
RAPID CITY     CLOUDY    46  30  53 N10       29.82R
BISMARCK       CLOUDY    41  35  79 SE5       29.93S
KANSAS CITY    CLOUDY    44  42  93 NW5       29.87F
HILL CITY      CLOUDY    40  40 100 E3        29.91S
WICHITA        CLOUDY    43  43 100 NW3       29.91S FOG
DODGE CITY     PTCLDY    36  35  96 SE7       29.87F WCI  30
OKLAHOMA CITY  CLOUDY    47  42  83 E9        29.90S
DALLAS         CLEAR     56  47  71 SE6       29.88F
AMARILLO       CLEAR     47  30  51 SE14      29.83F
$$




USA.gov is the U.S. government's official web portal to all federal, state and local government web resources and services.